"startDT [UTC]","vpos","CH4 [ppm]","stdev(CH4) [ppm]","CO2 [ppm]","stdev(CO2) [ppm]","H2O [ppm]","stdev(H2O)","p_LGR [torr]","T_LGR [C]","mt1_LGR [us]","mt2_LGR [us]","T_ECpre [C]","T_EC1 [C]","T_EC2 [C]","p_inlet [hPa]","p_in [hPa]","p_out [hPa]","T_inlet [C]","RH_inlet [%]","dwpt_inlet [C]","T_vent [C]","RH_vent [%]","dwpt_vent [C]","flow_vent [l min-1]","flow_inlet [l min-1]","dwpt_sample [C]","T_room [C]"
2012-06-07 00:00:00,0.0,1.8876,0.0009,399.97,0.17,0.7,7.8,138.06,30.42,24.64,36.36,1.03,-23.71,-27.55,-53,567,-919,21.9,18.9,-2.9,22.2,1.6,-31.8,5.73,2.32,-29.6,27.5
2012-06-07 00:01:00,0.0,1.8880,0.0008,399.98,0.24,-0.5,2.3,138.06,30.42,24.63,36.36,0.96,-24.08,-27.57,-52,567,-918,21.9,18.8,-2.9,22.1,1.6,-31.8,5.73,2.31,-29.6,27.5
2012-06-07 00:02:00,0.0,1.8877,0.0011,399.93,0.15,0.5,5.7,138.06,30.42,24.63,36.36,0.94,-24.44,-27.57,-53,567,-918,21.9,18.9,-2.9,22.2,1.6,-31.8,5.73,2.33,-29.6,27.5
2012-06-07 00:03:00,0.0,1.8881,0.0009,399.96,0.19,-0.1,4.8,138.06,30.42,24.63,36.36,0.98,-24.78,-27.58,-53,567,-919,21.9,19.0,-2.8,22.2,1.6,-31.9,5.73,2.34,-29.6,27.4
2012-06-07 00:04:00,0.0,1.8884,0.0011,399.96,0.20,2.1,9.6,138.06,30.42,24.63,36.36,1.00,-25.09,-27.60,-53,567,-919,21.9,19.1,-2.7,22.2,1.6,-31.9,5.73,2.33,-29.6,27.5
2012-06-07 00:05:00,0.0,1.8886,0.0008,399.97,0.20,0.9,7.6,138.06,30.42,24.64,36.36,1.03,-25.39,-27.60,-53,567,-918,21.9,19.3,-2.6,22.2,1.6,-32.0,5.73,2.31,-29.7,27.5
2012-06-07 00:06:00,0.0,1.8882,0.0010,399.96,0.17,-0.1,5.9,138.06,30.42,24.63,36.36,1.00,-25.67,-27.61,-53,567,-918,21.9,19.0,-2.8,22.2,1.6,-31.9,5.73,2.32,-29.6,27.5
2012-06-07 00:07:00,0.0,1.8882,0.0007,399.92,0.21,1.0,5.8,138.06,30.41,24.64,36.36,0.94,-25.93,-27.63,-53,567,-919,21.9,19.5,-2.4,22.2,1.6,-31.9,5.73,2.34,-29.7,27.5
2012-06-07 00:08:00,0.0,1.8883,0.0007,399.94,0.16,-0.3,3.1,138.06,30.41,24.64,36.36,0.96,-26.18,-27.63,-53,567,-919,21.9,19.5,-2.4,22.2,1.6,-32.0,5.73,2.34,-29.7,27.4
2012-06-07 00:09:00,0.0,1.8879,0.0008,399.91,0.18,0.2,4.8,138.06,30.41,24.64,36.36,1.00,-26.41,-27.64,-53,567,-919,21.9,19.3,-2.6,22.2,1.6,-32.0,5.73,2.32,-29.7,27.4
2012-06-07 00:10:00,0.0,1.8883,0.0011,400.01,0.18,0.4,5.6,138.06,30.41,24.64,36.35,1.04,-26.63,-27.65,-53,567,-918,21.9,19.0,-2.8,22.2,1.6,-31.9,5.73,2.32,-29.7,27.4
2012-06-07 00:11:00,0.0,1.8883,0.0008,399.94,0.21,-0.9,0.7,138.06,30.41,24.63,36.35,1.00,-26.83,-27.66,-53,567,-918,21.9,18.7,-3.0,22.2,1.6,-32.0,5.73,2.32,-29.7,27.4
2012-06-07 00:12:00,0.0,1.8877,0.0010,399.86,0.20,-0.6,1.8,138.06,30.41,24.64,36.37,1.12,-45.70,-46.57,-53,567,-919,21.9,18.3,-3.3,22.1,1.6,-32.0,5.42,2.41,-33.6,27.4
2012-06-07 00:13:00,0.0,1.8873,0.0009,399.88,0.19,0.2,4.4,138.06,30.41,24.64,36.36,0.94,-27.21,-27.68,-53,567,-919,21.9,17.9,-3.5,22.2,1.6,-31.9,5.73,2.34,-29.7,27.4
2012-06-07 00:14:00,0.0,1.8878,0.0011,399.96,0.19,0.2,3.8,138.06,30.41,24.63,36.36,0.98,-27.38,-27.68,-53,567,-919,21.9,17.7,-3.7,22.1,1.6,-32.0,5.73,2.32,-29.7,27.4
2012-06-07 00:15:00,0.0,1.8873,0.0009,399.93,0.20,0.4,6.9,138.06,30.41,24.64,36.36,1.01,-27.54,-27.69,-53,567,-918,21.9,17.7,-3.7,22.2,1.5,-32.1,5.73,2.31,-29.7,27.4
2012-06-07 00:16:00,0.0,1.8873,0.0009,399.99,0.20,0.6,5.8,138.06,30.41,24.63,36.36,0.93,-27.61,-27.69,-53,567,-918,21.9,17.6,-3.8,22.2,1.5,-32.1,5.73,2.33,-29.7,27.4
2012-06-07 00:17:00,0.0,1.8879,0.0010,399.92,0.18,-0.1,5.3,138.06,30.41,24.63,36.36,1.02,-27.28,-27.70,-53,567,-919,21.9,17.6,-3.8,22.2,1.5,-32.1,5.73,2.35,-29.7,27.4
2012-06-07 00:18:00,0.0,1.8877,0.0009,400.03,0.17,-0.6,2.7,138.06,30.41,24.63,36.35,1.05,-27.31,-27.71,-53,567,-919,22.0,17.3,-4.0,22.2,1.5,-32.1,5.73,2.33,-29.7,27.4
2012-06-07 00:19:00,0.0,1.8875,0.0009,399.93,0.18,-0.4,4.0,138.06,30.41,24.63,36.36,0.97,-27.44,-27.72,-53,567,-919,22.0,16.8,-4.4,22.2,1.5,-32.1,5.73,2.31,-29.7,27.4
2012-06-07 00:20:00,0.0,1.8877,0.0008,399.98,0.17,-0.4,4.1,138.06,30.40,24.63,36.36,0.94,-27.59,-27.73,-53,567,-918,22.0,16.8,-4.3,22.2,1.5,-32.1,5.73,2.32,-29.7,27.4
2012-06-07 00:21:00,0.0,1.8877,0.0008,399.97,0.15,1.3,6.8,138.06,30.40,24.63,36.36,0.89,-27.66,-27.74,-53,567,-918,22.0,16.6,-4.5,22.2,1.5,-32.1,5.73,2.34,-29.7,27.5
2012-06-07 00:22:00,0.0,1.8874,0.0009,399.98,0.20,1.6,8.4,138.06,30.40,24.63,36.36,0.98,-27.32,-27.74,-53,567,-919,22.0,16.5,-4.6,22.2,1.5,-32.1,5.73,2.34,-29.7,27.5
2012-06-07 00:23:00,0.0,1.8875,0.0008,399.92,0.20,2.2,9.1,138.06,30.40,24.63,36.36,1.00,-27.35,-27.75,-53,567,-919,22.0,16.3,-4.7,22.2,1.5,-32.1,5.73,2.32,-29.7,27.4
2012-06-07 00:24:00,0.0,1.8872,0.0009,400.01,0.18,-0.3,3.7,138.06,30.40,24.63,36.36,0.97,-27.48,-27.69,-53,567,-919,22.0,16.6,-4.5,22.2,1.6,-32.0,5.73,2.32,-29.7,27.4
2012-06-07 00:25:00,0.0,1.8873,0.0009,399.96,0.18,-0.3,3.0,138.06,30.40,24.64,36.35,0.85,-27.64,-26.53,-53,567,-918,22.0,16.6,-4.5,22.2,1.5,-32.2,5.73,2.33,-29.7,27.4
2012-06-07 00:26:00,0.0,1.8867,0.0010,399.90,0.19,1.3,8.1,138.06,30.40,24.63,36.36,0.92,-27.75,-24.62,-53,567,-918,22.0,16.2,-4.8,22.2,1.6,-31.4,5.73,2.35,-29.7,27.4
2012-06-07 00:27:00,0.0,1.8866,0.0011,399.96,0.19,1.0,6.1,138.06,30.40,24.63,36.35,0.95,-27.81,-22.62,-53,567,-919,22.0,16.4,-4.6,22.2,1.8,-30.6,5.73,2.35,-29.7,27.4
2012-06-07 00:28:00,0.0,1.8874,0.0009,399.94,0.16,0.1,6.6,138.06,30.40,24.63,36.35,0.81,-27.82,-20.68,-53,567,-919,22.0,16.8,-4.3,22.2,1.9,-30.1,5.73,2.33,-29.7,27.5
2012-06-07 00:29:00,0.0,1.8870,0.0008,399.92,0.19,-0.1,4.0,138.06,30.39,24.63,36.36,0.80,-27.81,-18.81,-53,567,-919,22.0,16.9,-4.3,22.2,1.9,-29.8,5.73,2.32,-29.7,27.5
2012-06-07 00:30:00,0.0,1.8868,0.0007,399.87,0.21,1.0,6.1,138.06,30.39,24.64,36.36,0.87,-27.79,-17.05,-53,567,-919,22.0,17.1,-4.1,22.2,1.9,-29.8,5.73,2.34,-29.7,27.5
2012-06-07 00:31:00,0.0,1.8865,0.0008,399.98,0.20,0.7,6.8,138.06,30.39,24.64,36.35,0.95,-27.76,-15.36,-53,567,-918,22.0,16.8,-4.3,22.2,1.9,-29.8,5.73,2.35,-29.7,27.5
2012-06-07 00:32:00,0.0,1.8871,0.0010,399.96,0.18,-0.6,2.3,138.06,30.39,24.63,36.36,0.91,-27.72,-13.76,-53,567,-918,22.0,16.9,-4.2,22.2,1.9,-29.9,5.73,2.34,-29.7,27.5
2012-06-07 00:33:00,0.0,1.8869,0.0010,399.91,0.15,0.6,5.3,138.06,30.39,24.63,36.36,0.76,-27.68,-12.25,-53,567,-919,22.0,17.3,-4.0,22.2,1.9,-29.9,5.73,2.32,-29.7,27.5
2012-06-07 00:34:00,0.0,1.8871,0.0008,399.86,0.21,1.4,6.0,138.06,30.39,24.63,36.36,0.85,-27.65,-10.81,-53,567,-919,22.0,17.5,-3.8,22.2,1.9,-30.1,5.73,2.33,-29.7,27.5
2012-06-07 00:35:00,0.0,1.8872,0.0010,399.90,0.19,-0.4,2.6,138.06,30.39,24.63,36.35,0.91,-27.60,-9.44,-53,567,-919,22.0,17.8,-3.6,22.2,1.9,-30.1,5.73,2.34,-29.7,27.6
2012-06-07 00:36:00,0.0,1.8865,0.0010,399.87,0.17,1.9,10.3,138.06,30.39,24.63,36.36,0.96,-27.57,-8.15,-53,567,-919,22.0,17.4,-3.8,22.2,1.9,-30.2,5.73,2.34,-29.7,27.5
2012-06-07 00:37:00,0.0,1.8862,0.0009,399.86,0.20,-0.3,3.7,138.06,30.39,24.63,36.36,0.90,-27.53,-6.91,-53,567,-919,22.0,17.6,-3.7,22.3,1.8,-30.2,5.73,2.32,-29.7,27.5
2012-06-07 00:38:00,0.0,1.8868,0.0009,399.89,0.18,1.9,8.2,138.06,30.39,24.63,36.36,0.81,-27.50,-5.74,-53,567,-918,22.0,17.6,-3.7,22.2,1.8,-30.3,5.73,2.32,-29.7,27.5
2012-06-07 00:39:00,0.0,1.8870,0.0009,399.93,0.19,0.2,6.9,138.06,30.39,24.63,36.35,0.86,-27.46,-4.63,-53,567,-918,22.0,18.4,-3.1,22.3,1.8,-30.3,5.73,2.35,-29.7,27.5
2012-06-07 00:40:00,0.0,1.8867,0.0008,399.96,0.20,-0.8,1.3,138.06,30.39,24.63,36.35,0.91,-27.43,-3.57,-53,567,-919,22.0,18.2,-3.3,22.3,1.8,-30.4,5.73,2.34,-29.7,27.5
2012-06-07 00:41:00,0.0,1.8867,0.0009,399.92,0.19,0.9,5.4,138.06,30.39,24.63,36.36,0.93,-27.40,-2.56,-53,567,-919,22.0,18.3,-3.2,22.3,1.8,-30.3,5.73,2.32,-29.7,27.6
2012-06-07 00:42:00,0.0,1.8872,0.0009,399.93,0.16,-0.6,3.1,138.06,30.39,24.63,36.36,0.95,-27.36,-1.61,-53,567,-919,22.0,18.8,-2.8,22.3,1.8,-30.5,5.73,2.32,-29.7,27.6
2012-06-07 00:43:00,0.0,1.8865,0.0008,399.91,0.16,1.4,6.5,138.06,30.38,24.63,36.36,0.86,-27.33,-0.70,-53,567,-919,22.0,18.2,-3.3,22.3,1.8,-30.5,5.73,2.34,-29.7,27.6
2012-06-07 00:44:00,0.0,1.8863,0.0009,399.88,0.16,-0.0,4.0,138.06,30.38,24.63,36.36,0.83,-27.30,0.17,-53,567,-918,22.0,17.5,-3.8,22.3,1.8,-30.5,5.73,2.34,-29.7,27.6
2012-06-07 00:45:00,0.0,1.8861,0.0009,399.96,0.17,0.3,4.1,138.06,30.38,24.63,36.35,0.87,-27.27,0.99,-53,567,-918,22.0,17.3,-3.9,22.3,1.8,-30.5,5.73,2.32,-29.7,27.6
2012-06-07 00:46:00,0.0,1.8860,0.0010,399.87,0.19,0.5,7.4,138.06,30.38,24.63,36.36,0.90,-27.25,1.77,-53,567,-919,22.0,16.5,-4.6,22.3,1.8,-30.6,5.73,2.32,-29.7,27.6
2012-06-07 00:47:00,0.0,1.8852,0.0010,399.86,0.17,1.4,7.2,138.06,30.38,24.64,36.36,0.94,-27.23,2.47,-53,567,-919,22.0,16.3,-4.7,22.3,1.8,-30.7,5.73,2.34,-29.3,27.6
2012-06-07 00:48:00,0.0,1.8860,0.0009,399.84,0.20,1.4,10.2,138.06,30.38,24.63,36.36,0.96,-27.20,3.00,-53,567,-919,22.0,17.0,-4.2,22.3,1.8,-30.7,5.73,2.34,-29.2,27.6
2012-06-07 00:49:00,0.0,1.8859,0.0009,399.90,0.20,-0.3,3.1,138.06,30.37,24.63,36.35,0.93,-27.17,3.28,-53,567,-919,22.0,16.9,-4.3,22.3,1.8,-30.7,5.73,2.31,-29.2,27.6
2012-06-07 00:50:00,0.0,1.8858,0.0007,399.81,0.20,2.2,8.4,138.06,30.37,24.63,36.36,0.84,-27.15,3.61,-53,567,-919,22.0,17.2,-4.0,22.3,1.8,-30.7,5.73,2.32,-29.2,27.6
2012-06-07 00:51:00,0.0,1.8861,0.0008,399.79,0.21,1.2,5.6,138.06,30.37,24.63,36.36,0.86,-27.13,4.11,-53,567,-918,22.0,17.2,-4.0,22.3,1.8,-30.7,5.73,2.34,-29.2,27.6
2012-06-07 00:52:00,0.0,1.8863,0.0008,399.96,0.19,0.8,6.3,138.06,30.37,24.63,36.35,0.88,-27.11,4.73,-53,567,-919,22.0,16.9,-4.3,22.3,1.8,-30.7,5.73,2.34,-29.2,27.6
2012-06-07 00:53:00,0.0,1.8864,0.0010,399.98,0.16,0.1,4.8,138.06,30.37,24.63,36.35,0.92,-27.09,5.32,-53,567,-919,22.0,17.1,-4.1,22.3,1.7,-30.8,5.73,2.31,-29.3,27.6
2012-06-07 00:54:00,0.0,1.8863,0.0010,399.87,0.18,0.8,6.4,138.06,30.37,24.63,36.36,0.93,-27.07,5.89,-53,567,-919,22.0,17.1,-4.1,22.3,1.7,-30.9,5.73,2.32,-29.2,27.6
2012-06-07 00:55:00,0.0,1.8867,0.0007,399.93,0.22,0.6,4.6,138.06,30.37,24.63,36.35,0.95,-27.06,6.42,-53,567,-919,22.0,17.3,-3.9,22.3,1.7,-30.8,5.73,2.34,-29.2,27.6
2012-06-07 00:56:00,0.0,1.8864,0.0008,399.84,0.20,0.3,5.4,138.06,30.37,24.63,36.36,0.92,-27.03,6.94,-53,567,-919,22.0,17.6,-3.7,22.3,1.7,-30.8,5.73,2.33,-29.2,27.7
2012-06-07 00:57:00,0.0,1.8870,0.0010,399.91,0.20,-0.5,2.1,138.06,30.37,24.63,36.35,0.85,-27.02,7.43,-53,567,-918,22.0,17.6,-3.7,22.3,1.7,-30.8,5.73,2.31,-29.2,27.7
2012-06-07 00:58:00,0.0,1.8868,0.0009,399.92,0.16,0.4,4.5,138.06,30.37,24.63,36.35,0.86,-27.00,7.88,-53,567,-919,22.0,17.5,-3.7,22.3,1.7,-30.8,5.73,2.33,-29.2,27.6
2012-06-07 00:59:00,0.0,1.8865,0.0008,399.87,0.20,0.6,6.8,138.06,30.37,24.63,36.36,0.86,-26.99,8.32,-53,567,-919,22.0,17.7,-3.6,22.3,1.7,-30.8,5.73,2.34,-29.2,27.6
2012-06-07 01:00:00,0.0,1.8873,0.0010,399.90,0.16,1.1,6.6,138.06,30.37,24.63,36.35,0.89,-26.97,8.75,-53,567,-919,22.0,18.2,-3.2,22.3,1.7,-30.8,5.73,2.32,-29.2,27.6
2012-06-07 01:01:00,0.0,1.8872,0.0009,399.97,0.17,0.1,4.8,138.06,30.37,24.63,36.35,0.93,-26.96,9.15,-53,567,-919,22.1,17.6,-3.7,22.3,1.7,-30.8,5.73,2.30,-29.2,27.6
2012-06-07 01:02:00,0.0,1.8869,0.0010,399.94,0.17,2.0,10.2,138.06,30.37,24.63,36.35,0.94,-26.95,9.55,-53,567,-918,22.1,17.7,-3.6,22.3,1.7,-30.8,5.73,2.34,-29.2,27.7
2012-06-07 01:03:00,0.0,1.8874,0.0008,399.89,0.20,0.1,3.2,138.06,30.37,24.63,36.35,0.95,-26.93,9.93,-53,567,-918,22.1,18.0,-3.3,22.3,1.7,-30.8,5.73,2.34,-29.2,27.6
2012-06-07 01:04:00,0.0,1.8868,0.0009,399.96,0.20,0.5,3.7,138.06,30.37,24.63,36.35,0.92,-26.92,10.30,-53,567,-919,22.1,17.8,-3.5,22.3,1.7,-30.8,5.73,2.31,-29.2,27.6
2012-06-07 01:05:00,0.0,1.8863,0.0009,399.90,0.17,1.0,5.2,138.06,30.37,24.63,36.35,0.86,-26.91,10.65,-53,567,-919,22.1,17.5,-3.7,22.3,1.7,-30.8,5.73,2.31,-29.2,27.7
2012-06-07 01:06:00,0.0,1.8865,0.0008,399.94,0.15,1.8,7.7,138.06,30.37,24.63,36.35,0.85,-26.90,10.99,-53,567,-919,22.1,17.3,-3.9,22.3,1.7,-30.8,5.73,2.35,-29.2,27.6
2012-06-07 01:07:00,0.0,1.8865,0.0008,399.96,0.16,3.9,13.4,138.06,30.37,24.63,36.35,0.88,-26.88,11.32,-53,567,-919,22.1,17.5,-3.8,22.3,1.7,-30.8,5.73,2.33,-29.2,27.7
2012-06-07 01:08:00,0.0,1.8859,0.0009,399.89,0.16,1.8,8.4,138.06,30.37,24.64,36.36,0.91,-26.87,11.64,-53,567,-919,22.0,17.4,-3.8,22.3,1.7,-30.8,5.73,2.30,-29.2,27.6
2012-06-07 01:09:00,0.0,1.8862,0.0009,399.88,0.16,1.1,7.1,138.06,30.37,24.63,36.35,0.93,-26.86,11.94,-53,567,-919,22.1,17.5,-3.7,22.3,1.7,-30.8,5.73,2.33,-29.2,27.6
2012-06-07 01:10:00,0.0,1.8860,0.0008,400.01,0.19,1.3,7.4,138.06,30.37,24.64,36.35,0.95,-26.85,12.23,-53,567,-919,22.1,17.1,-4.0,22.3,1.7,-30.8,5.73,2.34,-29.2,27.7
2012-06-07 01:11:00,0.0,1.8862,0.0009,399.91,0.21,1.4,8.6,138.06,30.37,24.63,36.35,0.95,-26.84,12.51,-53,567,-919,22.1,17.0,-4.1,22.3,1.7,-30.8,5.73,2.32,-29.2,27.6
2012-06-07 01:12:00,0.0,1.8859,0.0008,399.83,0.20,1.2,9.3,138.06,30.37,24.64,36.36,0.94,-26.83,12.79,-53,567,-919,22.1,17.0,-4.1,22.3,1.7,-30.8,5.73,2.31,-29.2,27.7
2012-06-07 01:13:00,0.0,1.8862,0.0009,399.84,0.21,0.1,3.7,138.06,30.36,24.63,36.36,0.91,-26.82,13.05,-53,567,-919,22.1,17.5,-3.8,22.3,1.7,-30.8,5.73,2.34,-29.2,27.7
2012-06-07 01:14:00,0.0,1.8860,0.0009,399.84,0.15,0.7,7.4,138.06,30.36,24.64,36.36,0.87,-26.82,13.29,-53,567,-919,22.1,17.1,-4.0,22.3,1.7,-30.8,5.73,2.33,-29.2,27.7
2012-06-07 01:15:00,0.0,1.8864,0.0009,399.90,0.18,0.0,4.2,138.06,30.36,24.63,36.35,0.86,-26.81,13.53,-53,567,-919,22.1,17.3,-3.9,22.3,1.7,-30.8,5.73,2.30,-29.2,27.7
2012-06-07 01:16:00,0.0,1.8863,0.0009,399.82,0.20,2.0,8.3,138.06,30.36,24.63,36.35,0.89,-26.80,13.76,-53,567,-919,22.1,17.4,-3.8,22.3,1.7,-30.8,5.73,2.32,-29.2,27.7
2012-06-07 01:17:00,0.0,1.8869,0.0012,399.81,0.19,1.3,6.6,138.06,30.36,24.63,36.36,0.90,-26.79,13.98,-53,567,-919,22.1,17.7,-3.6,22.3,1.7,-30.8,5.73,2.35,-29.2,27.7
2012-06-07 01:18:00,0.0,1.8867,0.0008,399.81,0.17,0.1,3.3,138.06,30.36,24.63,36.36,0.92,-26.79,14.19,-53,567,-919,22.1,17.3,-3.8,22.3,1.7,-30.8,5.73,2.32,-29.2,27.7
2012-06-07 01:19:00,0.0,1.8865,0.0011,399.92,0.20,1.2,6.4,138.06,30.36,24.63,36.35,0.93,-26.79,14.38,-53,567,-919,22.1,17.2,-3.9,22.3,1.7,-30.8,5.73,2.30,-29.2,27.7
2012-06-07 01:20:00,0.0,1.8859,0.0008,399.85,0.19,-0.2,3.7,138.06,30.36,24.63,36.35,0.94,-26.77,14.57,-53,567,-919,22.1,16.2,-4.8,22.3,1.7,-30.8,5.73,2.33,-29.2,27.7
2012-06-07 01:21:00,0.0,1.8853,0.0009,399.83,0.18,-0.5,2.5,138.06,30.36,24.64,36.36,0.94,-26.77,14.75,-53,568,-919,22.1,16.0,-4.9,22.3,1.7,-30.8,5.73,2.34,-29.2,27.7
2012-06-07 01:22:00,0.0,1.8860,0.0010,399.86,0.18,2.3,8.1,138.06,30.36,24.63,36.35,0.93,-26.76,14.93,-53,568,-919,22.1,15.6,-5.3,22.3,1.7,-31.0,5.73,2.31,-29.2,27.6
2012-06-07 01:23:00,0.0,1.8854,0.0009,399.90,0.18,0.5,6.2,138.06,30.35,24.63,36.35,0.89,-26.76,15.10,-53,567,-919,22.1,15.8,-5.0,22.3,1.7,-31.0,5.73,2.31,-29.2,27.7
2012-06-07 01:24:00,0.0,1.8861,0.0010,399.77,0.19,0.2,6.3,138.06,30.35,24.63,36.36,0.88,-26.76,15.25,-53,567,-919,22.1,15.8,-5.0,22.3,1.7,-31.0,5.73,2.34,-29.2,27.6
2012-06-07 01:25:00,0.0,1.8854,0.0009,399.87,0.23,0.7,6.7,138.06,30.35,24.64,36.35,0.88,-26.76,15.41,-53,567,-919,22.1,16.2,-4.8,22.4,1.7,-30.9,5.73,2.33,-29.2,27.7
2012-06-07 01:26:00,0.0,1.8854,0.0008,399.90,0.17,3.7,11.2,138.06,30.35,24.63,36.35,0.89,-26.75,15.56,-53,567,-919,22.1,15.9,-5.0,22.3,1.7,-30.9,5.73,2.30,-29.2,27.7
2012-06-07 01:27:00,0.0,1.8855,0.0008,399.89,0.20,2.4,10.2,138.06,30.35,24.63,36.35,0.90,-26.75,15.69,-53,567,-919,22.1,15.6,-5.2,22.4,1.7,-31.0,5.73,2.32,-29.2,27.7
2012-06-07 01:28:00,0.0,1.8851,0.0009,399.83,0.25,3.2,11.5,138.06,30.35,24.63,36.36,0.92,-26.74,15.83,-53,567,-919,22.1,15.0,-5.7,22.4,1.7,-30.9,5.73,2.34,-29.2,27.7
2012-06-07 01:29:00,0.0,1.8852,0.0009,399.85,0.22,2.6,10.3,138.06,30.35,24.63,36.36,0.94,-26.74,15.96,-53,567,-920,22.1,15.3,-5.5,22.4,1.7,-30.9,5.73,2.32,-29.1,27.7
2012-06-07 01:30:00,0.0,1.8852,0.0010,399.92,0.18,1.1,7.9,138.06,30.35,24.63,36.35,0.94,-26.74,16.07,-53,568,-919,22.1,15.3,-5.5,22.4,1.7,-31.0,5.73,2.30,-29.1,27.7
2012-06-07 01:31:00,0.0,1.8853,0.0008,399.89,0.16,2.5,10.2,138.06,30.35,24.63,36.35,0.94,-26.74,16.20,-53,568,-919,22.1,15.2,-5.5,22.4,1.7,-30.9,5.73,2.33,-29.1,27.7
2012-06-07 01:32:00,0.0,1.8851,0.0008,399.90,0.19,3.8,13.4,138.06,30.35,24.63,36.35,0.93,-26.73,16.31,-53,567,-919,22.2,15.5,-5.2,22.4,1.7,-30.9,5.73,2.33,-29.1,27.7
2012-06-07 01:33:00,0.0,1.8850,0.0009,399.85,0.18,1.3,7.6,138.06,30.35,24.63,36.35,0.88,-26.74,16.41,-53,567,-920,22.2,15.2,-5.5,22.4,1.7,-31.0,5.73,2.31,-29.1,27.6
2012-06-07 01:34:00,0.0,1.8850,0.0010,399.81,0.19,0.3,4.2,138.06,30.35,24.63,36.36,0.88,-26.73,16.52,-53,568,-919,22.2,15.5,-5.2,22.4,1.7,-30.9,5.73,2.32,-29.1,27.7
2012-06-07 01:35:00,0.0,1.8852,0.0008,399.92,0.19,2.3,9.3,138.06,30.34,24.63,36.35,0.88,-26.73,16.62,-53,568,-919,22.2,15.7,-5.1,22.4,1.7,-31.0,5.73,2.34,-29.1,27.6
2012-06-07 01:36:00,0.0,1.8856,0.0008,399.89,0.19,1.8,8.4,138.06,30.34,24.63,36.35,0.89,-26.73,16.71,-53,568,-919,22.2,16.3,-4.6,22.4,1.7,-31.0,5.73,2.33,-29.1,27.7
2012-06-07 01:37:00,0.0,1.8850,0.0010,399.85,0.19,1.0,8.2,138.06,30.34,24.64,36.35,0.91,-26.73,16.80,-53,567,-920,22.2,16.6,-4.3,22.4,1.7,-31.0,5.73,2.30,-29.1,27.6
2012-06-07 01:38:00,0.0,1.8856,0.0008,399.96,0.19,1.8,8.5,138.06,30.34,24.63,36.35,0.92,-26.72,16.89,-53,567,-919,22.2,16.8,-4.2,22.4,1.7,-30.9,5.73,2.33,-29.1,27.7
2012-06-07 01:39:00,0.0,1.8856,0.0009,399.89,0.15,1.4,7.3,138.06,30.35,24.63,36.36,0.93,-26.72,16.97,-53,568,-919,22.2,16.5,-4.4,22.4,1.7,-31.0,5.73,2.34,-29.2,27.6
2012-06-07 01:40:00,0.0,1.8850,0.0009,399.85,0.17,1.5,7.9,138.06,30.35,24.64,36.36,0.95,-26.72,17.04,-53,568,-920,22.2,16.6,-4.4,22.4,1.7,-31.0,5.73,2.32,-29.2,27.6
2012-06-07 01:41:00,0.0,1.8853,0.0010,399.88,0.20,3.3,11.1,138.06,30.34,24.64,36.36,0.95,-26.72,17.12,-53,567,-920,22.2,16.8,-4.2,22.4,1.7,-30.9,5.73,2.31,-29.1,27.7
2012-06-07 01:42:00,0.0,1.8856,0.0007,400.03,0.17,2.3,9.7,138.06,30.34,24.63,36.35,0.94,-26.71,17.19,-53,567,-919,22.2,17.2,-3.8,22.4,1.7,-30.9,5.73,2.34,-29.1,27.7
2012-06-07 01:43:00,0.0,1.8859,0.0011,399.92,0.19,-0.7,2.4,138.06,30.34,24.63,36.35,0.91,-26.71,17.27,-53,568,-919,22.2,16.6,-4.3,22.4,1.7,-30.9,5.73,2.34,-29.1,27.7
2012-06-07 01:44:00,0.0,1.8856,0.0007,399.90,0.18,3.2,13.2,138.06,30.34,24.63,36.35,0.87,-26.71,17.33,-53,568,-920,22.2,16.8,-4.2,22.4,1.7,-30.9,5.73,2.31,-29.2,27.6
2012-06-07 01:45:00,0.0,1.8858,0.0009,399.84,0.19,2.5,9.1,138.06,30.34,24.63,36.36,0.87,-26.70,17.39,-53,568,-920,22.2,16.5,-4.4,22.4,1.7,-30.9,5.73,2.32,-29.2,27.6
2012-06-07 01:46:00,0.0,1.8856,0.0009,399.89,0.17,0.9,5.0,138.06,30.34,24.63,36.35,0.88,-26.70,17.46,-53,567,-919,22.2,16.4,-4.5,22.4,1.7,-30.9,5.73,2.34,-29.2,27.7
2012-06-07 01:47:00,0.0,1.8857,0.0009,399.89,0.19,0.6,6.2,138.06,30.34,24.63,36.35,0.89,-26.70,17.51,-53,567,-919,22.2,16.4,-4.5,22.4,1.7,-30.9,5.73,2.33,-29.2,27.7
2012-06-07 01:48:00,0.0,1.8851,0.0010,399.89,0.21,2.6,11.6,138.06,30.34,24.64,36.35,0.91,-26.70,17.57,-53,567,-920,22.2,16.1,-4.7,22.4,1.7,-30.9,5.73,2.31,-29.2,27.7
2012-06-07 01:49:00,0.0,1.8855,0.0009,399.75,0.20,1.3,7.3,138.06,30.33,24.63,36.36,0.91,-26.70,17.62,-53,568,-920,22.3,16.2,-4.6,22.4,1.7,-30.9,5.73,2.33,-29.2,27.7
2012-06-07 01:50:00,0.0,1.8853,0.0010,399.82,0.22,1.2,7.5,138.06,30.33,24.63,36.35,0.93,-26.70,17.67,-53,568,-919,22.3,16.3,-4.5,22.4,1.7,-30.9,5.73,2.34,-29.2,27.7
2012-06-07 01:51:00,0.0,1.8848,0.0010,399.81,0.23,2.6,9.0,138.06,30.33,24.63,36.36,0.94,-26.70,17.72,-53,567,-919,22.2,16.1,-4.7,22.4,1.7,-30.9,5.73,2.31,-29.2,27.6
2012-06-07 01:52:00,0.0,1.8849,0.0009,399.85,0.16,0.8,5.7,138.06,30.33,24.64,36.35,0.95,-26.69,17.77,-53,568,-920,22.3,16.2,-4.6,22.4,1.7,-30.9,5.73,2.31,-29.2,27.7
2012-06-07 01:53:00,0.0,1.8852,0.0007,399.85,0.17,-0.3,3.4,138.06,30.33,24.64,36.35,0.94,-26.70,17.81,-53,568,-919,22.3,15.3,-5.3,22.4,1.7,-31.0,5.73,2.34,-29.2,27.7
2012-06-07 01:54:00,0.0,1.8852,0.0009,399.81,0.19,1.2,8.5,138.06,30.33,24.63,36.36,0.90,-26.70,17.85,-53,568,-919,22.3,15.4,-5.2,22.4,1.7,-30.9,5.73,2.33,-29.2,27.7
2012-06-07 01:55:00,0.0,1.8853,0.0009,399.72,0.20,2.5,7.7,138.06,30.33,24.63,36.36,0.86,-26.69,17.89,-53,568,-920,22.3,15.6,-5.1,22.4,1.7,-30.9,5.73,2.31,-29.2,27.6
2012-06-07 01:56:00,0.0,1.8853,0.0010,399.74,0.18,2.0,8.9,138.06,30.32,24.63,36.35,0.88,-26.70,17.93,-53,568,-920,22.3,16.0,-4.8,22.4,1.7,-31.0,5.73,2.32,-29.2,27.6
2012-06-07 01:57:00,0.0,1.8855,0.0008,399.86,0.17,3.0,9.7,138.06,30.32,24.64,36.35,0.89,-26.70,17.97,-53,568,-920,22.3,15.4,-5.3,22.4,1.7,-31.1,5.73,2.34,-29.2,27.6
2012-06-07 01:58:00,0.0,1.8855,0.0009,399.79,0.17,1.7,6.6,138.06,30.32,24.64,36.36,0.89,-26.70,18.00,-53,568,-919,22.3,15.2,-5.4,22.4,1.7,-31.1,5.73,2.33,-29.2,27.7
2012-06-07 01:59:00,0.0,1.8860,0.0010,399.84,0.17,0.7,6.8,138.06,30.32,24.63,36.35,0.91,-26.70,18.04,-53,568,-920,22.3,15.6,-5.1,22.4,1.7,-31.1,5.73,2.30,-29.2,27.6
2012-06-07 02:00:00,0.0,1.8855,0.0009,399.76,0.15,0.1,5.0,138.06,30.32,24.63,36.36,0.93,-26.70,18.07,-53,568,-920,22.3,15.1,-5.5,22.4,1.7,-31.1,5.73,2.32,-29.2,27.7
2012-06-07 02:01:00,0.0,1.8852,0.0009,399.80,0.22,1.1,6.8,138.06,30.32,24.63,36.36,0.94,-26.70,18.10,-53,568,-920,22.3,14.8,-5.7,22.4,1.7,-31.1,5.73,2.34,-29.2,27.6
2012-06-07 02:02:00,0.0,1.8859,0.0008,399.89,0.21,2.8,8.4,138.06,30.32,24.63,36.35,0.95,-26.70,18.14,-53,568,-919,22.3,14.9,-5.7,22.5,1.7,-31.1,5.73,2.32,-29.2,27.7
2012-06-07 02:03:00,0.0,1.8853,0.0009,399.76,0.16,1.0,6.7,138.06,30.31,24.63,36.35,0.94,-26.70,18.16,-53,568,-920,22.3,14.9,-5.6,22.4,1.7,-31.1,5.73,2.31,-29.2,27.7
2012-06-07 02:04:00,0.0,1.8857,0.0008,399.87,0.21,3.8,13.3,138.06,30.31,24.63,36.35,0.92,-26.70,18.19,-53,568,-920,22.3,15.0,-5.6,22.4,1.7,-31.1,5.73,2.33,-29.2,27.7
2012-06-07 02:05:00,0.0,1.8860,0.0009,399.81,0.17,0.0,3.2,138.06,30.31,24.63,36.35,0.90,-26.71,18.22,-53,568,-919,22.3,15.1,-5.5,22.5,1.7,-31.1,5.73,2.34,-29.2,27.7
2012-06-07 02:06:00,0.0,1.8855,0.0009,399.86,0.23,1.6,10.0,138.06,30.31,24.63,36.35,0.88,-26.70,18.24,-53,568,-919,22.3,14.6,-5.9,22.5,1.7,-31.1,5.73,2.32,-29.2,27.6
2012-06-07 02:07:00,0.0,1.8853,0.0009,399.72,0.19,0.5,5.7,138.06,30.31,24.63,36.36,0.88,-26.71,18.27,-53,568,-920,22.3,14.7,-5.8,22.5,1.7,-31.1,5.73,2.31,-29.2,27.7
2012-06-07 02:08:00,0.0,1.8855,0.0009,399.88,0.22,1.3,6.6,138.06,30.31,24.64,36.35,0.89,-26.71,18.29,-53,568,-920,22.3,14.7,-5.8,22.5,1.7,-31.0,5.73,2.34,-29.2,27.7
2012-06-07 02:09:00,0.0,1.8858,0.0008,399.86,0.21,5.1,13.4,138.06,30.31,24.63,36.35,0.91,-26.71,18.31,-53,568,-919,22.3,15.0,-5.6,22.5,1.7,-31.1,5.73,2.33,-29.2,27.6
2012-06-07 02:10:00,0.0,1.8851,0.0009,399.84,0.19,2.2,10.6,138.06,30.31,24.63,36.35,0.90,-26.71,18.34,-53,568,-920,22.3,14.9,-5.6,22.5,1.7,-31.1,5.73,2.31,-29.2,27.7
2012-06-07 02:11:00,0.0,1.8854,0.0008,399.81,0.18,2.5,10.0,138.06,30.31,24.63,36.35,0.92,-26.71,18.36,-53,568,-920,22.3,15.1,-5.4,22.5,1.7,-31.1,5.73,2.32,-29.2,27.7
2012-06-07 02:12:00,0.0,1.8852,0.0009,399.80,0.19,1.2,7.6,138.06,30.31,24.64,36.35,0.93,-26.72,18.38,-53,568,-920,22.3,15.1,-5.5,22.5,1.7,-31.1,5.73,2.34,-29.2,27.7
2012-06-07 02:13:00,0.0,1.8855,0.0009,399.78,0.23,2.4,9.0,138.06,30.31,24.63,36.35,0.94,-26.71,18.40,-53,568,-919,22.3,14.9,-5.7,22.5,1.7,-31.1,5.73,2.33,-29.2,27.7
2012-06-07 02:14:00,0.0,1.8857,0.0009,399.79,0.17,0.8,5.6,138.06,30.31,24.63,36.36,0.95,-26.72,18.42,-53,568,-920,22.3,14.7,-5.9,22.5,1.7,-31.1,5.73,2.31,-29.2,27.7
2012-06-07 02:15:00,0.0,1.8856,0.0009,399.83,0.22,1.6,7.5,138.06,30.31,24.63,36.35,0.94,-26.72,18.43,-53,568,-920,22.3,14.7,-5.9,22.5,1.7,-31.1,5.73,2.33,-29.2,27.7
2012-06-07 02:16:00,0.0,1.8851,0.0009,399.78,0.19,1.0,6.9,138.06,30.31,24.63,36.35,0.91,-26.72,18.45,-53,568,-920,22.3,14.9,-5.6,22.5,1.7,-31.0,5.73,2.34,-29.2,27.7
2012-06-07 02:17:00,0.0,1.8854,0.0009,399.83,0.20,1.1,8.0,138.06,30.31,24.63,36.35,0.89,-26.72,18.47,-53,568,-919,22.3,14.7,-5.8,22.5,1.7,-31.1,5.73,2.32,-29.2,27.6
2012-06-07 02:18:00,0.0,1.8853,0.0009,399.77,0.20,1.2,7.1,138.06,30.31,24.63,36.36,0.89,-26.73,18.48,-53,568,-920,22.3,14.8,-5.7,22.5,1.7,-31.1,5.73,2.31,-29.2,27.6
2012-06-07 02:19:00,0.0,1.8858,0.0008,399.81,0.21,0.0,4.4,138.06,30.31,24.63,36.35,0.89,-26.72,18.50,-53,568,-920,22.3,14.9,-5.6,22.5,1.7,-31.1,5.73,2.33,-29.2,27.7
2012-06-07 02:20:00,0.0,1.8857,0.0010,399.76,0.20,3.8,11.4,138.06,30.31,24.63,36.35,0.91,-26.73,18.51,-53,568,-920,22.3,15.1,-5.5,22.5,1.7,-31.2,5.73,2.34,-29.2,27.6
2012-06-07 02:21:00,0.0,1.8853,0.0007,399.84,0.16,3.0,9.0,138.06,30.31,24.63,36.35,0.92,-26.73,18.52,-53,568,-919,22.3,15.1,-5.5,22.5,1.7,-31.2,5.73,2.32,-29.2,27.7